Fergus Falls, MN

7:28 PM CDT on October 17, 2017 (GMT -0500)
Fergus Falls Municipal-Mickelson

Weather History for KFFM - February, 2013

Change the Weather History Date:

Wednesday, February 13, 2013

  Actual Average Record
Temperature  
Mean Temperature 22 °F -  
Max Temperature 30 °F 22 °F 44 °F (2002)
Min Temperature 15 °F 0 °F -25 °F (1951)
Degree Days  
Heating Degree Days 42    
Moisture  
Dew Point 22 °F    
Average Humidity 94    
Maximum Humidity 100    
Minimum Humidity 86    
Precipitation  
Precipitation 0.19 in - - ()
Sea Level Pressure  
Sea Level Pressure 29.66 in    
Wind  
Wind Speed 4 mph (SSW)    
Max Wind Speed 12 mph    
Max Gust Speed -    
Visibility 5 miles    
Events Fog , Rain , Snow    
Averages and records for this station are not official NWS values.
T = Trace of Precipitation, MM = Missing Value Source: NWS Daily Summary

Daily Weather History Graph

Daily Weather History Graph

Search for Another Location

Airport or City:

Trip Planner

Search our weather history database for the weather conditions in past years. The results will help you decide how hot, cold, wet, or windy it might be!

Date:

Astronomy

Feb. 13, 2013 Rise Set
Actual Time 7:30 AM CST 5:47 PM CST
Civil Twilight 6:59 AM CST 6:18 PM CST
Nautical Twilight 6:24 AM CST 6:54 PM CST
Astronomical Twilight 5:49 AM CST 7:29 PM CST
Moon 8:44 AM CST (2/13) 10:09 PM CST (2/13)
Length of Visible Light 11h 19m
Length of Day
10h 17m
Waxing Crescent, 14% of the Moon is Illuminated
Feb 13
Waxing Crescent
Feb 17
First Quarter
Feb 25
Full
Mar 4
Last Quarter
Mar 11
New

Hourly Weather History & Observations

Time (CST) Temp. Windchill Dew Point Humidity Pressure Visibility Wind Dir Wind Speed Gust Speed Precip Events Conditions
12:13 AM 15.8 °F - 12.2 °F 86% 29.78 in 0.2 mi Calm Calm - N/A Fog Light Freezing Fog
12:33 AM 15.8 °F 8.6 °F 12.2 °F 86% 29.77 in 1.0 mi WSW 4.6 mph - N/A   Mist
12:53 AM 15.8 °F 10.2 °F 14.0 °F 93% 29.77 in 2.0 mi SW 3.5 mph - N/A   Mist
1:13 AM 15.8 °F 8.6 °F 12.2 °F 86% 29.78 in 5.0 mi WSW 4.6 mph - N/A   Mist
1:33 AM 17.6 °F 10.7 °F 15.8 °F 93% 29.77 in 5.0 mi SW 4.6 mph - N/A   Mist
1:53 AM 17.6 °F 10.7 °F 15.8 °F 93% 29.76 in 7.0 mi SSW 4.6 mph - N/A   Overcast
2:13 AM 17.6 °F 12.3 °F 15.8 °F 93% 29.75 in 10.0 mi SSW 3.5 mph - N/A   Unknown
2:33 AM 17.6 °F 9.3 °F 17.6 °F 100% 29.75 in 10.0 mi SSW 5.8 mph - N/A   Overcast
2:53 AM 19.4 °F 12.8 °F 17.6 °F 93% 29.74 in 10.0 mi SSE 4.6 mph - N/A   Overcast
3:13 AM 19.4 °F 14.3 °F 19.4 °F 100% 29.74 in 10.0 mi SSE 3.5 mph - N/A   Overcast
3:33 AM 19.4 °F 14.3 °F 19.4 °F 100% 29.73 in 10.0 mi SSE 3.5 mph - N/A   Overcast
3:53 AM 21.2 °F 16.4 °F 19.4 °F 93% 29.72 in 10.0 mi SSW 3.5 mph - N/A   Overcast
4:13 AM 21.2 °F 14.9 °F 19.4 °F 93% 29.72 in 10.0 mi SSE 4.6 mph - N/A   Overcast
4:33 AM 21.2 °F 14.9 °F 19.4 °F 93% 29.71 in 10.0 mi SSE 4.6 mph - N/A   Overcast
4:53 AM 21.2 °F 14.9 °F 19.4 °F 93% 29.71 in 10.0 mi SSE 4.6 mph - N/A   Mostly Cloudy
5:13 AM 19.4 °F 11.5 °F 19.4 °F 100% 29.70 in 10.0 mi South 5.8 mph - N/A   Scattered Clouds
5:33 AM 19.4 °F 10.4 °F 17.6 °F 93% 29.70 in 10.0 mi South 6.9 mph - N/A   Clear
5:53 AM 19.4 °F 11.5 °F 17.6 °F 93% 29.70 in 10.0 mi SSE 5.8 mph - N/A   Clear
6:05 AM 17.6 °F 9.3 °F 15.8 °F 93% 29.69 in 10.0 mi SSE 5.8 mph - N/A   Clear
6:33 AM 17.6 °F 9.3 °F 15.8 °F 93% 29.69 in 7.0 mi South 5.8 mph - N/A   Clear
6:50 AM 15.8 °F 7.2 °F 12.2 °F 86% 29.68 in 7.0 mi South 5.8 mph - N/A   Clear
7:13 AM 17.6 °F 10.7 °F 15.8 °F 93% 29.68 in 7.0 mi South 4.6 mph - N/A   Clear
7:33 AM 15.8 °F 8.6 °F 15.8 °F 100% 29.68 in 5.0 mi South 4.6 mph - N/A   Clear
7:53 AM 15.8 °F 10.2 °F 15.8 °F 100% 29.68 in 4.0 mi South 3.5 mph - N/A   Clear
8:13 AM 17.6 °F 10.7 °F 15.8 °F 93% 29.68 in 3.0 mi SSW 4.6 mph - N/A   Clear
8:33 AM 17.6 °F 12.3 °F 15.8 °F 93% 29.68 in 2.5 mi South 3.5 mph - N/A   Clear
8:53 AM 19.4 °F - 17.6 °F 93% 29.67 in 3.0 mi Calm Calm - N/A   Clear
9:13 AM 19.4 °F 14.3 °F 17.6 °F 93% 29.66 in 4.0 mi SSW 3.5 mph - N/A   Clear
9:33 AM 19.4 °F - 17.6 °F 93% 29.65 in 7.0 mi Calm Calm - N/A   Clear
9:53 AM 19.4 °F 14.3 °F 17.6 °F 93% 29.66 in 7.0 mi SSW 3.5 mph - N/A   Clear
10:13 AM 19.4 °F 12.8 °F 19.4 °F 100% 29.66 in 10.0 mi SW 4.6 mph - N/A   Clear
10:33 AM 21.2 °F 16.4 °F 19.4 °F 93% 29.66 in 10.0 mi SW 3.5 mph - N/A   Clear
11:13 AM 21.2 °F - 21.2 °F 100% 29.65 in 10.0 mi Calm Calm - N/A   Clear
11:33 AM 23.0 °F - 21.2 °F 93% 29.64 in 10.0 mi Calm Calm - N/A   Clear
11:53 AM 24.8 °F - 21.2 °F 86% 29.64 in 10.0 mi Calm Calm - N/A   Clear
12:13 PM 24.8 °F - 21.2 °F 86% 29.63 in 10.0 mi Calm Calm - N/A   Clear
12:53 PM 24.8 °F - 21.2 °F 86% 29.61 in 1.5 mi Calm Calm - N/A Rain Light Freezing Rain
1:13 PM 26.6 °F - 23.0 °F 86% 29.60 in 1.0 mi Calm Calm - N/A Rain Light Freezing Rain
1:33 PM 26.6 °F - 24.8 °F 93% 29.59 in 0.8 mi Calm Calm - 0.01 in   Overcast
1:53 PM 26.6 °F - 26.6 °F 100% 29.58 in 0.5 mi Calm Calm - 0.02 in Snow Light Snow
2:13 PM 28.4 °F 24.6 °F 26.6 °F 93% 29.57 in 0.5 mi ESE 3.5 mph - 0.01 in Snow Light Snow
2:33 PM 28.4 °F 24.6 °F 26.6 °F 93% 29.57 in 0.2 mi SE 3.5 mph - 0.03 in Snow Snow
2:53 PM 28.4 °F 24.6 °F 26.6 °F 93% 29.56 in 0.2 mi SE 3.5 mph - 0.04 in Snow Snow
3:13 PM 28.4 °F 24.6 °F 28.4 °F 100% 29.56 in 0.5 mi SE 3.5 mph - 0.01 in Snow Snow
3:33 PM 28.4 °F - 28.4 °F 100% 29.56 in 0.5 mi Calm Calm - 0.03 in Snow Snow
3:53 PM 28.4 °F 24.6 °F 28.4 °F 100% 29.56 in 0.5 mi SE 3.5 mph - 0.04 in Snow Snow
4:13 PM 28.4 °F - 28.4 °F 100% 29.56 in 0.8 mi Calm Calm - 0.01 in Snow Light Snow
4:33 PM 30.2 °F - 28.4 °F 93% 29.57 in 1.0 mi Calm Calm - 0.02 in   Overcast
4:53 PM 28.4 °F - 28.4 °F 100% 29.57 in 0.5 mi Calm Calm - 0.03 in Rain Light Freezing Rain
5:13 PM 28.4 °F 23.3 °F 28.4 °F 100% 29.58 in 0.5 mi NNW 4.6 mph - 0.02 in Snow Snow
5:33 PM 28.4 °F 23.3 °F 28.4 °F 100% 29.58 in 0.2 mi NW 4.6 mph - 0.03 in Snow Snow
5:51 PM 28.4 °F - 28.4 °F 100% 29.59 in 1.0 mi North - - 0.04 in Snow Light Snow
6:14 PM 28.4 °F 21.2 °F 28.4 °F 100% 29.59 in 2.0 mi NNW 6.9 mph - N/A   Overcast
6:33 PM 28.4 °F 22.2 °F 28.4 °F 100% 29.60 in 1.5 mi North 5.8 mph - 0.01 in   Overcast
6:52 PM 28.4 °F 19.7 °F 28.4 °F 100% 29.60 in 1.2 mi North 9.2 mph - 0.01 in Snow Light Snow
7:10 PM 28.4 °F 19.7 °F 28.4 °F 100% 29.61 in 2.5 mi North 9.2 mph - N/A Snow Light Snow
7:33 PM 28.4 °F 22.2 °F 26.6 °F 93% 29.62 in 1.5 mi North 5.8 mph - N/A Snow Light Snow
7:53 PM 28.4 °F 22.2 °F 28.4 °F 100% 29.63 in 2.5 mi North 5.8 mph - N/A Snow Light Snow
8:13 PM 28.4 °F 23.3 °F 28.4 °F 100% 29.63 in 2.5 mi North 4.6 mph - N/A Snow Light Snow
8:33 PM 28.4 °F 21.2 °F 26.6 °F 93% 29.64 in 2.5 mi North 6.9 mph - 0.01 in   Overcast
8:53 PM 28.4 °F 20.4 °F 26.6 °F 93% 29.65 in 2.0 mi North 8.1 mph - N/A Snow Light Snow
9:13 PM 28.4 °F 21.2 °F 26.6 °F 93% 29.65 in 3.0 mi North 6.9 mph - N/A Snow Light Snow
9:33 PM 26.6 °F 17.5 °F 26.6 °F 100% 29.67 in 3.0 mi North 9.2 mph - N/A Snow Light Snow
9:53 PM 26.6 °F 19.1 °F 26.6 °F 100% 29.67 in 3.0 mi North 6.9 mph - N/A Snow Light Snow
10:13 PM 26.6 °F 18.2 °F 24.8 °F 93% 29.68 in 4.0 mi North 8.1 mph - N/A   Mostly Cloudy
10:33 PM 26.6 °F 19.1 °F 24.8 °F 93% 29.68 in 7.0 mi North 6.9 mph - N/A   Scattered Clouds
10:53 PM 26.6 °F 19.1 °F 24.8 °F 93% 29.69 in 10.0 mi North 6.9 mph - N/A   Mostly Cloudy
11:13 PM 26.6 °F 16.8 °F 23.0 °F 86% 29.70 in 10.0 mi North 10.4 mph - N/A   Overcast
11:33 PM 24.8 °F 16.1 °F 21.2 °F 86% 29.71 in 10.0 mi NNW 8.1 mph - N/A   Scattered Clouds
11:53 PM 19.4 °F 7.2 °F 17.6 °F 93% 29.72 in 10.0 mi NNW 11.5 mph - N/A   Clear